TimeMST,TemperatureF,Dew PointF,Humidity,Sea Level PressureIn,VisibilityMPH,Wind Direction,Wind SpeedMPH,Gust SpeedMPH,PrecipitationIn,Events,Conditions,WindDirDegrees,DateUTC
12:56 AM,39.0,34.0,82,30.16,10.0,Calm,Calm,-,N/A,,Partly Cloudy,0,2011-11-22 07:56:00
1:56 AM,39.9,34.0,79,30.17,10.0,NW,3.5,-,N/A,,Clear,320,2011-11-22 08:56:00
2:56 AM,39.0,34.0,82,30.21,10.0,WNW,4.6,-,N/A,,Clear,290,2011-11-22 09:56:00
3:56 AM,37.0,32.0,82,30.23,10.0,Calm,Calm,-,N/A,,Clear,0,2011-11-22 10:56:00
4:56 AM,37.0,33.1,86,30.24,10.0,SW,5.8,-,N/A,,Clear,230,2011-11-22 11:56:00
5:56 AM,30.0,27.0,88,30.27,10.0,SE,6.9,-,N/A,,Partly Cloudy,140,2011-11-22 12:56:00
6:56 AM,32.0,28.9,88,30.29,10.0,SSE,3.5,-,N/A,,Partly Cloudy,160,2011-11-22 13:56:00
7:56 AM,36.0,30.9,82,30.31,10.0,SSE,3.5,-,N/A,,Partly Cloudy,160,2011-11-22 14:56:00
8:56 AM,42.1,32.0,67,30.31,10.0,SE,4.6,-,N/A,,Partly Cloudy,130,2011-11-22 15:56:00
9:56 AM,46.9,33.1,59,30.30,10.0,Calm,Calm,-,N/A,,Partly Cloudy,0,2011-11-22 16:56:00
10:56 AM,46.9,33.1,59,30.31,10.0,Calm,Calm,-,N/A,,Partly Cloudy,0,2011-11-22 17:56:00
11:56 AM,52.0,33.1,49,30.27,10.0,Variable,4.6,-,N/A,,Partly Cloudy,0,2011-11-22 18:56:00
12:56 PM,54.0,30.0,40,30.23,10.0,Variable,4.6,-,N/A,,Partly Cloudy,0,2011-11-22 19:56:00
1:56 PM,57.0,25.0,29,30.19,10.0,NW,11.5,-,N/A,,Clear,320,2011-11-22 20:56:00
2:56 PM,57.9,26.1,30,30.19,10.0,NW,8.1,-,N/A,,Clear,310,2011-11-22 21:56:00
3:56 PM,55.9,28.9,36,30.22,10.0,SW,9.2,-,N/A,,Clear,230,2011-11-22 22:56:00
4:56 PM,54.0,28.9,38,30.23,10.0,West,5.8,-,N/A,,Clear,270,2011-11-22 23:56:00
5:56 PM,51.1,28.9,43,30.28,10.0,NW,6.9,-,N/A,,Clear,310,2011-11-23 00:56:00
6:56 PM,50.0,26.1,39,30.30,10.0,NW,3.5,-,N/A,,Clear,310,2011-11-23 01:56:00
7:56 PM,44.1,26.1,49,30.34,10.0,East,3.5,-,N/A,,Clear,80,2011-11-23 02:56:00
8:56 PM,48.0,26.1,42,30.31,10.0,NNW,8.1,-,N/A,,Clear,330,2011-11-23 03:56:00
9:56 PM,45.0,26.1,48,30.32,10.0,West,4.6,-,N/A,,Clear,260,2011-11-23 04:56:00
10:56 PM,42.1,25.0,51,30.32,10.0,Calm,Calm,-,N/A,,Clear,0,2011-11-23 05:56:00
11:56 PM,43.0,26.1,51,30.30,10.0,NNE,5.8,-,N/A,,Clear,20,2011-11-23 06:56:00